הכול
Yorketown Airport (Yorketown Southern Australia) YYOR מזג אוויר
There is no TAF data available at YYOR or any nearby airports.
There is no METAR data available at YYOR. Showing METAR data for YMIN (19 mi N).
Recent XML METAR history (no data for YYOR)
| Date | Time (ACST) | Flight Rules | Wind Dir. | Speed | Type | Height AGL (ft) | Visibility | Temp (°C) | Temp (°F) | Dew Point (°C) | Dew Point (°F) | Rel. Humid. | Pressure | Density Altitude | Remarks |
|---|---|---|---|---|---|---|---|---|---|---|---|---|---|---|---|
| 07-ספט | 07:30 | n/a | 130° | 8 kt | Missing | 9° | 48° | 8° | 46° | 93% | 1029 mb | -1,074 ft | |||
| 07-ספט | 06:30 | n/a | 130° | 9 kt | Missing | 8° | 46° | 7° | 44° | 93% | 1029 mb | -1,194 ft | |||
| 07-ספט | 05:30 | n/a | 150° | 9 kt | Missing | 8° | 46° | 7° | 44° | 93% | 1028 mb | -1,165 ft | |||
| 07-ספט | 04:30 | n/a | 140° | 6 kt | Missing | 9° | 48° | 8° | 46° | 93% | 1028 mb | -1,045 ft | |||
| 07-ספט | 03:30 | n/a | 150° | 8 kt | Missing | 9° | 48° | 8° | 46° | 93% | 1028 mb | -1,045 ft | |||
| 07-ספט | 02:30 | n/a | 180° | 5 kt | Missing | 10° | 50° | 10° | 50° | 100% | 1028 mb | -925 ft | |||
| 07-ספט | 01:30 | n/a | 180° | 7 kt | Missing | 10° | 50° | 9° | 48° | 93% | 1028 mb | -925 ft | |||
| 07-ספט | 00:30 | n/a | 200° | 8 kt | Missing | 11° | 51° | 10° | 50° | 94% | 1028 mb | -805 ft | |||
| 06-ספט | 23:30 | n/a | 200° | 7 kt | Missing | 11° | 51° | 10° | 50° | 94% | 1028 mb | -805 ft | |||
| 06-ספט | 22:30 | n/a | 170° | 6 kt | Missing | 10° | 50° | 9° | 48° | 93% | 1027 mb | -895 ft | |||
| 06-ספט | 21:30 | n/a | 160° | 9 kt | Missing | 9° | 48° | 8° | 46° | 93% | 1026 mb | -986 ft | |||
| 06-ספט | 20:30 | n/a | 150° | 6 kt | Missing | 11° | 51° | 10° | 50° | 94% | 1026 mb | -746 ft | |||
| 06-ספט | 19:30 | n/a | 130° | 6 kt | Missing | 11° | 51° | 9° | 48° | 87% | 1025 mb | -716 ft | |||
| 06-ספט | 18:30 | n/a | Calm | Missing | 12° | 53° | 9° | 48° | 82% | 1025 mb | -596 ft | ||||
| 06-ספט | 17:30 | n/a | 250° | 4 kt | Missing | 12° | 53° | 8° | 46° | 76% | 1024 mb | -567 ft | |||
| 06-ספט | 16:30 | n/a | 250° | 11 kt | Missing | 15° | 59° | 9° | 48° | 67% | 1024 mb | -207 ft | |||
| 06-ספט | 15:30 | n/a | 270° | 9 kt | Missing | 15° | 59° | 9° | 48° | 67% | 1024 mb | -207 ft | |||
| 06-ספט | 14:30 | n/a | 270° | 10 kt | Missing | 16° | 60° | 10° | 50° | 68% | 1023 mb | -57 ft | |||
| 06-ספט | 13:30 | n/a | 280° | 7 kt | Missing | 16° | 60° | 10° | 50° | 68% | 1023 mb | -57 ft | |||
| 06-ספט | 12:30 | n/a | 260° | 7 kt | Missing | 15° | 59° | 9° | 48° | 67% | 1024 mb | -207 ft | |||
| 06-ספט | 11:30 | n/a | 250° | 7 kt | Missing | 15° | 59° | 9° | 48° | 67% | 1024 mb | -207 ft | |||
| 06-ספט | 10:30 | n/a | 270° | 6 kt | Missing | 16° | 60° | 10° | 50° | 68% | 1024 mb | -87 ft | |||
| 06-ספט | 09:30 | n/a | 230° | 5 kt | Missing | 15° | 59° | 9° | 48° | 67% | 1024 mb | -207 ft | |||
| 06-ספט | 08:30 | n/a | 170° | 5 kt | Missing | 13° | 55° | 11° | 51° | 88% | 1024 mb | -447 ft |
כניסה לאתר
| אין תמיכה בדפדפן שלך. שדרג את הדפדפן שלך |
